Time,TemperatureF,DewpointF,PressureIn,WindDirection,WindDirectionDegrees,WindSpeedMPH,WindSpeedGustMPH,Humidity,HourlyPrecipIn,Conditions,Clouds,dailyrainin,SoftwareType,DateUTC
2013-07-27 00:00:00,79.0,73.4,29.95,NNE,32,0.0,0.0,83,0.00,,---,0.00,VWS V14.00,2013-07-27 05:00:00,
2013-07-27 00:10:00,78.8,73.2,29.95,NNE,32,0.0,0.0,83,0.00,,---,0.00,VWS V14.00,2013-07-27 05:10:00,
2013-07-27 00:20:00,79.0,73.4,29.95,NNE,13,0.0,0.0,83,0.00,,---,0.00,VWS V14.00,2013-07-27 05:20:00,
2013-07-27 00:30:00,79.0,73.4,29.95,NNE,30,0.0,0.0,83,0.00,,---,0.00,VWS V14.00,2013-07-27 05:30:00,
2013-07-27 00:40:00,79.0,73.0,29.95,North,5,0.0,2.7,82,0.00,,---,0.00,VWS V14.00,2013-07-27 05:40:00,
2013-07-27 00:50:00,78.4,72.5,29.95,ENE,68,2.7,3.1,82,0.00,,---,0.00,VWS V14.00,2013-07-27 05:50:00,
2013-07-27 01:00:00,77.9,72.0,29.95,NNE,16,0.0,3.6,82,0.00,,---,0.00,VWS V14.00,2013-07-27 06:00:00,
2013-07-27 01:10:00,77.5,71.6,29.95,NNE,32,0.0,3.6,82,0.00,,---,0.00,VWS V14.00,2013-07-27 06:10:00,
2013-07-27 01:20:00,77.2,71.3,29.95,NNE,22,0.0,3.6,82,0.00,,---,0.00,VWS V14.00,2013-07-27 06:20:00,
2013-07-27 01:30:00,76.8,70.6,29.95,NNE,27,0.0,3.1,81,0.00,,---,0.00,VWS V14.00,2013-07-27 06:30:00,
2013-07-27 01:40:00,76.6,70.4,29.95,NE,45,0.0,3.6,81,0.00,,---,0.00,VWS V14.00,2013-07-27 06:40:00,
2013-07-27 01:50:00,76.5,70.2,29.95,NNE,23,0.0,5.4,81,0.00,,---,0.00,VWS V14.00,2013-07-27 06:50:00,
2013-07-27 02:00:00,76.5,70.2,29.95,SSW,195,0.0,3.1,81,0.00,,---,0.00,VWS V14.00,2013-07-27 07:00:00,
2013-07-27 02:10:00,76.3,70.4,29.95,NE,35,0.0,2.7,82,0.00,,---,0.00,VWS V14.00,2013-07-27 07:10:00,
2013-07-27 02:20:00,76.1,70.2,29.95,NE,43,0.0,0.0,82,0.00,,---,0.00,VWS V14.00,2013-07-27 07:20:00,
2013-07-27 02:30:00,75.9,70.0,29.95,NNE,33,0.0,0.0,82,0.00,,---,0.00,VWS V14.00,2013-07-27 07:30:00,
2013-07-27 02:40:00,75.6,69.7,29.95,NNE,18,0.0,0.0,82,0.00,,---,0.00,VWS V14.00,2013-07-27 07:40:00,
2013-07-27 02:50:00,75.2,69.0,29.95,North,356,0.0,0.0,81,0.00,,---,0.00,VWS V14.00,2013-07-27 07:50:00,
2013-07-27 03:00:00,75.2,69.0,29.95,North,356,0.0,0.0,81,0.00,,---,0.00,VWS V14.00,2013-07-27 08:00:00,
2013-07-27 03:10:00,75.4,69.2,29.95,NW,311,0.0,4.0,81,0.00,,---,0.00,VWS V14.00,2013-07-27 08:10:00,
2013-07-27 03:20:00,75.4,69.2,29.95,NW,318,0.0,4.0,81,0.00,,---,0.00,VWS V14.00,2013-07-27 08:20:00,
2013-07-27 03:30:00,75.4,69.2,29.95,NNE,31,0.0,2.7,81,0.00,,---,0.00,VWS V14.00,2013-07-27 08:30:00,
2013-07-27 03:40:00,75.4,68.8,29.95,NNE,18,0.0,0.0,80,0.00,,---,0.00,VWS V14.00,2013-07-27 08:40:00,
2013-07-27 03:50:00,75.4,68.8,29.95,NE,36,0.0,0.0,80,0.00,,---,0.00,VWS V14.00,2013-07-27 08:50:00,
2013-07-27 04:00:00,75.4,68.8,29.95,NE,35,0.0,3.1,80,0.00,,---,0.00,VWS V14.00,2013-07-27 09:00:00,
2013-07-27 04:10:00,75.2,69.0,29.95,ESE,120,0.0,4.0,81,0.00,,---,0.00,VWS V14.00,2013-07-27 09:10:00,
2013-07-27 04:20:00,75.0,68.4,29.95,East,82,0.0,4.0,80,0.00,,---,0.00,VWS V14.00,2013-07-27 09:20:00,
2013-07-27 04:30:00,74.8,68.3,29.95,North,1,0.0,3.6,80,0.00,,---,0.00,VWS V14.00,2013-07-27 09:30:00,
2013-07-27 04:40:00,74.5,67.9,29.95,NE,52,0.0,3.6,80,0.00,,---,0.00,VWS V14.00,2013-07-27 09:40:00,
2013-07-27 04:50:00,74.3,67.7,29.95,South,173,2.7,4.0,80,0.00,,---,0.00,VWS V14.00,2013-07-27 09:50:00,
2013-07-27 05:00:00,74.1,67.9,29.95,North,351,3.1,3.1,81,0.00,,---,0.00,VWS V14.00,2013-07-27 10:00:00,
2013-07-27 05:10:00,74.1,67.9,29.95,NNE,30,3.1,3.1,81,0.00,,---,0.00,VWS V14.00,2013-07-27 10:10:00,
2013-07-27 05:20:00,73.9,67.4,29.95,NNE,25,0.0,3.6,80,0.00,,---,0.00,VWS V14.00,2013-07-27 10:20:00,
2013-07-27 05:30:00,73.8,67.2,29.95,North,351,0.0,3.1,80,0.00,,---,0.00,VWS V14.00,2013-07-27 10:30:00,
2013-07-27 05:40:00,73.8,67.2,29.95,NNE,29,0.0,2.7,80,0.00,,---,0.00,VWS V14.00,2013-07-27 10:40:00,
2013-07-27 05:50:00,73.8,67.2,29.95,North,3,2.7,2.7,80,0.00,,---,0.00,VWS V14.00,2013-07-27 10:50:00,
2013-07-27 06:00:00,73.8,67.2,29.95,SSW,201,0.0,3.1,80,0.00,,---,0.00,VWS V14.00,2013-07-27 11:00:00,
2013-07-27 06:10:00,73.8,67.2,29.95,NNE,18,0.0,0.0,80,0.00,,---,0.00,VWS V14.00,2013-07-27 11:10:00,
2013-07-27 06:20:00,73.8,67.6,29.95,NNW,347,3.6,4.0,81,0.00,,---,0.00,VWS V14.00,2013-07-27 11:20:00,
2013-07-27 06:30:00,73.8,67.6,29.98,NE,41,0.0,3.6,81,0.00,,---,0.00,VWS V14.00,2013-07-27 11:30:00,
2013-07-27 06:40:00,73.8,67.6,29.98,NE,34,0.0,3.6,81,0.00,,---,0.00,VWS V14.00,2013-07-27 11:40:00,
2013-07-27 06:50:00,73.8,67.6,29.98,NNE,14,0.0,3.1,81,0.00,,---,0.00,VWS V14.00,2013-07-27 11:50:00,
2013-07-27 07:00:00,73.8,67.6,29.98,ENE,78,0.0,2.7,81,0.00,,---,0.00,VWS V14.00,2013-07-27 12:00:00,
2013-07-27 07:10:00,73.8,67.6,29.98,SE,131,0.0,2.7,81,0.00,,---,0.00,VWS V14.00,2013-07-27 12:10:00,
2013-07-27 07:20:00,73.8,67.6,29.98,NE,49,2.7,3.1,81,0.00,,---,0.00,VWS V14.00,2013-07-27 12:20:00,
2013-07-27 07:30:00,73.8,67.6,29.98,West,268,0.0,4.9,81,0.00,,---,0.00,VWS V14.00,2013-07-27 12:30:00,
2013-07-27 07:40:00,73.9,67.8,29.98,ENE,70,0.0,4.0,81,0.00,,---,0.00,VWS V14.00,2013-07-27 12:40:00,
2013-07-27 07:50:00,73.9,67.4,29.98,NE,51,0.0,3.6,80,0.00,,---,0.00,VWS V14.00,2013-07-27 12:50:00,
2013-07-27 08:00:00,74.1,67.6,30.01,SSE,159,0.0,4.5,80,0.00,,---,0.00,VWS V14.00,2013-07-27 13:00:00,
2013-07-27 08:10:00,74.3,67.4,30.01,SSE,151,2.7,3.1,79,0.00,,---,0.00,VWS V14.00,2013-07-27 13:10:00,
2013-07-27 08:20:00,74.7,67.7,30.01,North,1,2.7,3.1,79,0.00,,---,0.00,VWS V14.00,2013-07-27 13:20:00,
2013-07-27 08:30:00,74.5,67.2,30.01,NE,46,0.0,4.5,78,0.00,,---,0.00,VWS V14.00,2013-07-27 13:30:00,
2013-07-27 08:40:00,74.3,67.0,30.01,NNE,33,0.0,3.1,78,0.00,,---,0.00,VWS V14.00,2013-07-27 13:40:00,
2013-07-27 08:50:00,74.1,66.8,30.01,NE,55,0.0,4.0,78,0.00,,---,0.00,VWS V14.00,2013-07-27 13:50:00,
2013-07-27 09:00:00,74.3,66.6,30.01,NE,41,0.0,4.0,77,0.00,,---,0.00,VWS V14.00,2013-07-27 14:00:00,
2013-07-27 09:10:00,74.5,66.4,30.01,North,351,0.0,4.0,76,0.00,,---,0.00,VWS V14.00,2013-07-27 14:10:00,
2013-07-27 09:20:00,74.5,66.4,30.01,NNE,32,2.7,4.0,76,0.00,,---,0.00,VWS V14.00,2013-07-27 14:20:00,
2013-07-27 09:30:00,74.5,66.4,30.01,SE,125,0.0,4.0,76,0.00,,---,0.00,VWS V14.00,2013-07-27 14:30:00,
2013-07-27 09:40:00,74.8,66.8,30.01,NNE,15,0.0,3.6,76,0.00,,---,0.00,VWS V14.00,2013-07-27 14:40:00,
2013-07-27 09:50:00,75.7,67.6,30.01,NE,48,0.0,4.5,76,0.00,,---,0.00,VWS V14.00,2013-07-27 14:50:00,
2013-07-27 10:00:00,76.5,67.6,30.01,NNE,33,0.0,4.0,74,0.00,,---,0.00,VWS V14.00,2013-07-27 15:00:00,
2013-07-27 10:10:00,77.2,67.9,30.01,North,6,3.1,4.5,73,0.00,,---,0.00,VWS V14.00,2013-07-27 15:10:00,
2013-07-27 10:20:00,78.4,68.3,30.01,NNE,26,0.0,4.0,71,0.00,,---,0.00,VWS V14.00,2013-07-27 15:20:00,
2013-07-27 10:30:00,78.8,68.2,30.01,NE,37,0.0,4.0,70,0.00,,---,0.00,VWS V14.00,2013-07-27 15:30:00,
2013-07-27 10:40:00,79.9,68.8,30.01,NNW,333,0.0,3.6,69,0.00,,---,0.00,VWS V14.00,2013-07-27 15:40:00,
2013-07-27 10:50:00,79.9,68.4,30.01,NE,46,0.0,3.6,68,0.00,,---,0.00,VWS V14.00,2013-07-27 15:50:00,
2013-07-27 11:00:00,80.6,68.6,30.01,NW,323,0.0,4.9,67,0.00,,---,0.00,VWS V14.00,2013-07-27 16:00:00,
2013-07-27 11:10:00,80.8,68.4,30.01,ENE,64,0.0,3.1,66,0.00,,---,0.00,VWS V14.00,2013-07-27 16:10:00,
2013-07-27 11:20:00,81.3,68.4,30.01,ENE,70,0.0,4.9,65,0.00,,---,0.00,VWS V14.00,2013-07-27 16:20:00,
2013-07-27 11:30:00,81.7,68.3,30.01,NNW,328,2.7,6.9,64,0.00,,---,0.00,VWS V14.00,2013-07-27 16:30:00,
2013-07-27 11:40:00,82.6,68.7,30.01,ENE,67,0.0,3.6,63,0.00,,---,0.00,VWS V14.00,2013-07-27 16:40:00,
2013-07-27 11:50:00,82.8,68.9,30.01,ENE,57,0.0,3.6,63,0.00,,---,0.00,VWS V14.00,2013-07-27 16:50:00,
2013-07-27 12:00:00,83.5,68.6,30.01,ENE,61,2.7,4.0,61,0.00,,---,0.00,VWS V14.00,2013-07-27 17:00:00,
2013-07-27 12:10:00,84.0,68.2,30.01,ENE,65,0.0,6.7,59,0.00,,---,0.00,VWS V14.00,2013-07-27 17:10:00,
2013-07-27 12:20:00,84.0,67.7,30.01,NNE,20,0.0,4.0,58,0.00,,---,0.00,VWS V14.00,2013-07-27 17:20:00,
2013-07-27 12:30:00,84.4,68.0,30.01,NNE,28,0.0,3.6,58,0.00,,---,0.00,VWS V14.00,2013-07-27 17:30:00,
2013-07-27 12:40:00,84.6,67.7,30.01,NNE,14,0.0,4.0,57,0.00,,---,0.00,VWS V14.00,2013-07-27 17:40:00,
2013-07-27 12:50:00,85.1,67.7,30.01,ENE,61,0.0,4.5,56,0.00,,---,0.00,VWS V14.00,2013-07-27 17:50:00,
2013-07-27 13:00:00,85.6,67.6,30.01,NE,38,0.0,3.1,55,0.00,,---,0.00,VWS V14.00,2013-07-27 18:00:00,
2013-07-27 13:10:00,86.0,67.4,30.01,NE,39,0.0,3.1,54,0.00,,---,0.00,VWS V14.00,2013-07-27 18:10:00,
2013-07-27 13:20:00,85.8,66.7,30.01,NNE,12,0.0,4.0,53,0.00,,---,0.00,VWS V14.00,2013-07-27 18:20:00,
2013-07-27 13:30:00,86.9,67.2,29.98,NE,56,0.0,6.3,52,0.00,,---,0.00,VWS V14.00,2013-07-27 18:30:00,
2013-07-27 13:40:00,86.5,66.3,29.98,NW,321,3.6,4.9,51,0.00,,---,0.00,VWS V14.00,2013-07-27 18:40:00,
2013-07-27 13:50:00,86.9,66.6,29.98,NW,311,0.0,4.5,51,0.00,,---,0.00,VWS V14.00,2013-07-27 18:50:00,
2013-07-27 14:00:00,87.4,65.9,29.98,SW,222,0.0,4.5,49,0.00,,---,0.00,VWS V14.00,2013-07-27 19:00:00,
2013-07-27 14:10:00,87.6,65.5,29.98,NW,311,0.0,5.4,48,0.00,,---,0.00,VWS V14.00,2013-07-27 19:10:00,
2013-07-27 14:20:00,87.1,64.4,29.98,NW,307,0.0,5.4,47,0.00,,---,0.00,VWS V14.00,2013-07-27 19:20:00,
2013-07-27 14:30:00,87.8,64.5,29.98,North,7,0.0,4.0,46,0.00,,---,0.00,VWS V14.00,2013-07-27 19:30:00,
2013-07-27 14:40:00,88.3,64.9,29.98,ENE,66,0.0,4.0,46,0.00,,---,0.00,VWS V14.00,2013-07-27 19:40:00,
2013-07-27 14:50:00,88.9,64.2,29.98,East,79,0.0,6.7,44,0.00,,---,0.00,VWS V14.00,2013-07-27 19:50:00,
2013-07-27 15:00:00,89.1,63.7,29.98,NNW,346,0.0,6.3,43,0.00,,---,0.00,VWS V14.00,2013-07-27 20:00:00,
2013-07-27 15:10:00,88.9,62.8,29.98,ENE,66,0.0,4.9,42,0.00,,---,0.00,VWS V14.00,2013-07-27 20:10:00,
2013-07-27 15:20:00,89.4,63.3,29.98,East,91,0.0,4.0,42,0.00,,---,0.00,VWS V14.00,2013-07-27 20:20:00,
2013-07-27 15:30:00,89.8,62.3,29.95,ENE,70,0.0,5.8,40,0.00,,---,0.00,VWS V14.00,2013-07-27 20:30:00,
2013-07-27 15:40:00,89.8,62.3,29.95,ENE,67,0.0,6.3,40,0.00,,---,0.00,VWS V14.00,2013-07-27 20:40:00,
2013-07-27 15:50:00,89.8,61.5,29.95,NE,35,0.0,5.4,39,0.00,,---,0.00,VWS V14.00,2013-07-27 20:50:00,
2013-07-27 16:00:00,89.6,61.4,29.95,NE,39,0.0,0.0,39,0.00,,---,0.00,VWS V14.00,2013-07-27 21:00:00,
2013-07-27 16:10:00,89.6,61.4,29.95,East,93,0.0,4.5,39,0.00,,---,0.00,VWS V14.00,2013-07-27 21:10:00,
2013-07-27 16:20:00,89.8,61.5,29.95,ENE,75,0.0,6.9,39,0.00,,---,0.00,VWS V14.00,2013-07-27 21:20:00,
2013-07-27 16:30:00,89.6,61.4,29.95,NE,48,2.7,4.9,39,0.00,,---,0.00,VWS V14.00,2013-07-27 21:30:00,
2013-07-27 16:40:00,90.0,61.0,29.92,NE,46,0.0,5.8,38,0.00,,---,0.00,VWS V14.00,2013-07-27 21:40:00,
2013-07-27 16:50:00,90.1,61.1,29.92,NE,49,0.0,6.3,38,0.00,,---,0.00,VWS V14.00,2013-07-27 21:50:00,
2013-07-27 17:00:00,89.8,60.1,29.92,NE,54,0.0,4.5,37,0.00,,---,0.00,VWS V14.00,2013-07-27 22:00:00,
2013-07-27 17:10:00,89.8,60.1,29.92,East,96,0.0,5.4,37,0.00,,---,0.00,VWS V14.00,2013-07-27 22:10:00,
2013-07-27 17:20:00,89.6,59.9,29.92,ESE,105,0.0,5.8,37,0.00,,---,0.00,VWS V14.00,2013-07-27 22:20:00,
2013-07-27 17:30:00,90.0,60.2,29.92,SE,140,0.0,3.6,37,0.00,,---,0.00,VWS V14.00,2013-07-27 22:30:00,
2013-07-27 17:40:00,89.8,58.5,29.92,ENE,68,5.8,5.8,35,0.00,,---,0.00,VWS V14.00,2013-07-27 22:40:00,
2013-07-27 17:50:00,89.4,58.2,29.92,NE,51,0.0,6.3,35,0.00,,---,0.00,VWS V14.00,2013-07-27 22:50:00,
2013-07-27 18:00:00,88.9,57.7,29.92,ENE,67,2.7,5.4,35,0.00,,---,0.00,VWS V14.00,2013-07-27 23:00:00,
2013-07-27 18:10:00,88.7,56.8,29.92,East,101,0.0,5.4,34,0.00,,---,0.00,VWS V14.00,2013-07-27 23:10:00,
2013-07-27 18:20:00,88.5,56.6,29.92,East,81,0.0,5.8,34,0.00,,---,0.00,VWS V14.00,2013-07-27 23:20:00,
2013-07-27 18:30:00,88.2,56.3,29.92,ENE,69,0.0,3.1,34,0.00,,---,0.00,VWS V14.00,2013-07-27 23:30:00,
2013-07-27 18:40:00,88.0,56.1,29.89,ENE,70,0.0,0.0,34,0.00,,---,0.00,VWS V14.00,2013-07-27 23:40:00,
2013-07-27 18:50:00,87.8,56.0,29.89,ENE,68,0.0,5.4,34,0.00,,---,0.00,VWS V14.00,2013-07-27 23:50:00,
2013-07-27 19:00:00,87.4,55.7,29.89,NE,50,0.0,3.6,34,0.00,,---,0.00,VWS V14.00,2013-07-28 00:00:00,
2013-07-27 19:10:00,87.3,55.5,29.89,NE,51,0.0,4.0,34,0.00,,---,0.00,VWS V14.00,2013-07-28 00:10:00,
2013-07-27 19:20:00,87.3,56.3,29.89,NE,55,0.0,4.0,35,0.00,,---,0.00,VWS V14.00,2013-07-28 00:20:00,
2013-07-27 19:30:00,86.9,56.8,29.89,ENE,73,0.0,3.1,36,0.00,,---,0.00,VWS V14.00,2013-07-28 00:30:00,
2013-07-27 19:40:00,86.5,57.2,29.89,ENE,62,0.0,0.0,37,0.00,,---,0.00,VWS V14.00,2013-07-28 00:40:00,
2013-07-27 19:50:00,86.0,57.5,29.89,NE,39,0.0,2.7,38,0.00,,---,0.00,VWS V14.00,2013-07-28 00:50:00,
2013-07-27 20:00:00,85.8,57.3,29.89,ENE,75,0.0,0.0,38,0.00,,---,0.00,VWS V14.00,2013-07-28 01:00:00,
2013-07-27 20:10:00,85.1,57.4,29.89,ENE,73,0.0,0.0,39,0.00,,---,0.00,VWS V14.00,2013-07-28 01:10:00,
2013-07-27 20:20:00,84.6,57.6,29.89,ENE,70,0.0,0.0,40,0.00,,---,0.00,VWS V14.00,2013-07-28 01:20:00,
2013-07-27 20:30:00,83.8,57.7,29.89,ENE,72,0.0,0.0,41,0.00,,---,0.00,VWS V14.00,2013-07-28 01:30:00,
2013-07-27 20:40:00,83.3,57.8,29.89,ENE,69,0.0,0.0,42,0.00,,---,0.00,VWS V14.00,2013-07-28 01:40:00,
2013-07-27 20:50:00,82.8,58.0,29.89,ENE,71,0.0,0.0,43,0.00,,---,0.00,VWS V14.00,2013-07-28 01:50:00,
2013-07-27 21:00:00,82.2,57.5,29.89,ENE,71,0.0,0.0,43,0.00,,---,0.00,VWS V14.00,2013-07-28 02:00:00,
2013-07-27 21:10:00,81.7,57.7,29.89,ENE,70,0.0,0.0,44,0.00,,---,0.00,VWS V14.00,2013-07-28 02:10:00,
2013-07-27 21:20:00,81.0,57.6,29.89,ENE,68,0.0,0.0,45,0.00,,---,0.00,VWS V14.00,2013-07-28 02:20:00,
2013-07-27 21:30:00,80.4,58.4,29.92,ENE,70,0.0,0.0,47,0.00,,---,0.00,VWS V14.00,2013-07-28 02:30:00,
2013-07-27 21:40:00,79.9,58.5,29.92,ENE,70,0.0,0.0,48,0.00,,---,0.00,VWS V14.00,2013-07-28 02:40:00,
2013-07-27 21:50:00,79.7,58.9,29.92,ENE,68,0.0,0.0,49,0.00,,---,0.00,VWS V14.00,2013-07-28 02:50:00,
2013-07-27 22:00:00,79.9,59.6,29.92,SE,128,0.0,0.0,50,0.00,,---,0.00,VWS V14.00,2013-07-28 03:00:00,
2013-07-27 22:10:00,80.1,60.9,29.95,ESE,113,0.0,3.1,52,0.00,,---,0.00,VWS V14.00,2013-07-28 03:10:00,
2013-07-27 22:20:00,80.2,61.6,29.95,ESE,112,0.0,0.0,53,0.00,,---,0.00,VWS V14.00,2013-07-28 03:20:00,
2013-07-27 22:30:00,80.2,62.1,29.95,ESE,111,0.0,2.7,54,0.00,,---,0.00,VWS V14.00,2013-07-28 03:30:00,
2013-07-27 22:40:00,80.1,61.9,29.95,ESE,109,0.0,0.0,54,0.00,,---,0.00,VWS V14.00,2013-07-28 03:40:00,
2013-07-27 22:50:00,79.7,62.1,29.95,ESE,105,0.0,0.0,55,0.00,,---,0.00,VWS V14.00,2013-07-28 03:50:00,
2013-07-27 23:00:00,79.3,62.3,29.95,ESE,109,0.0,3.1,56,0.00,,---,0.00,VWS V14.00,2013-07-28 04:00:00,
2013-07-27 23:10:00,79.2,62.6,29.95,ESE,103,0.0,0.0,57,0.00,,---,0.00,VWS V14.00,2013-07-28 04:10:00,
2013-07-27 23:20:00,78.8,62.8,29.95,East,98,0.0,0.0,58,0.00,,---,0.00,VWS V14.00,2013-07-28 04:20:00,
2013-07-27 23:30:00,78.6,62.6,29.95,East,97,0.0,0.0,58,0.00,,---,0.00,VWS V14.00,2013-07-28 04:30:00,
2013-07-27 23:40:00,78.4,62.9,29.95,East,97,0.0,0.0,59,0.00,,---,0.00,VWS V14.00,2013-07-28 04:40:00,
2013-07-27 23:50:00,78.1,63.1,29.95,ESE,121,0.0,0.0,60,0.00,,---,0.00,VWS V14.00,2013-07-28 04:50:00,